Location: Gipe Farm
(40.9466°N, 95.5370°W)
Time: 11:59:37
(UTC-05:00)

Daily predictions for brighter satellites

Satellite Brightness Start Highest point End
(mag) Time Altitude Azimuth Time Altitude Azimuth Time Altitude Azimuth
USA 229 DEB 4.2 19:28:24 10° NW 19:35:35 73° WSW 19:42:52 10° SSE
USA 229 4.2 19:28:30 10° NW 19:35:41 73° WSW 19:42:58 10° SSE
Cosmos 841 Rocket 3.6 19:33:55 10° S 19:38:55 55° ESE 19:43:57 10° NNE
NOSS 3-1 (A) 4.3 19:32:36 10° NNW 19:40:01 55° NE 19:48:13 10° SE
Cosmos 371 Rocket 4.4 19:35:37 10° SW 19:40:21 51° WNW 19:45:09 10° N
Cosmos 1953 Rocket 3.5 19:36:52 10° N 19:41:13 75° E 19:45:31 10° SSE
Resurs 01 Rocket 3.4 19:39:31 10° E 19:41:41 14° ENE 19:43:50 10° NNE
Cosmos 1937 Rocket 3.7 19:39:20 10° NNW 19:44:39 82° WSW 19:49:54 10° SSE
Cosmos 2058 Rocket 3.1 19:41:34 10° S 19:45:51 60° E 19:50:11 10° NNE
Cosmos 389 Rocket 3.3 19:43:00 10° SSW 19:46:27 56° WNW 19:49:52 10° N
NOSS 3-1 (C) 4.1 19:40:30 10° NNW 19:48:09 76° NE 19:56:36 10° SE
Cosmos 1271 Rocket 4.0 19:45:22 10° SSW 19:49:00 46° WNW 19:52:43 10° N
SL-27 R/B 4.3 19:48:30 10° SE 19:50:11 13° E 19:51:53 10° ENE
Cosmos 540 Rocket 4.0 19:47:18 10° SSE 19:51:54 35° E 19:56:31 10° NE
Cosmos 2184 Rocket 4.3 19:47:27 10° SSE 19:53:27 48° E 19:59:31 10° NNE
Meteor 2-13 Rocket 4.4 19:49:57 10° S 19:56:01 77° E 20:02:06 10° N
Cosmos 1763 Rocket 3.7 19:52:07 10° SSW 19:57:13 75° WNW 20:02:25 10° NNE
HJ-1C 4.3 19:55:57 10° SE 19:58:55 30° ENE 20:01:54 10° N
SL-08 ROCKET BODY 4.3 19:55:15 10° S 20:01:08 82° E 20:07:07 10° N
Cosmos 1805 4.1 20:05:25 10° SSE 20:08:45 28° E 20:12:07 10° NNE
Cosmos 2327 Rocket 4.4 20:06:13 10° S 20:12:13 61° E 20:18:12 10° NNE
CZ-2D R/B 4.0 20:13:42 15° SE 20:16:17 32° ENE 20:19:42 10° N
Cosmos 1943 Rocket 4.2 20:12:18 10° NW 20:17:06 30° WSW 20:21:54 10° SSW
Cosmos 304 Rocket 4.3 20:16:39 10° SSW 20:21:23 62° WNW 20:26:10 10° NNE
Milstar 3 Cent rocket 3.7 20:25:28 10° SSW 20:28:52 17° S 20:30:39 14° SE
ISS -3.6 20:26:12 10° SW 20:29:22 48° SE 20:30:17 35° E
Spot 2 Rocket 4.0 20:28:03 20° SE 20:31:01 39° ENE 20:35:41 10° N
BREEZE-M DEB (TANK) 3.2 20:29:51 10° NNW 20:31:19 16° NNE 20:31:29 15° NNE
Thor Agena Rocket 4.2 20:28:09 10° N 20:33:19 59° WNW 20:38:23 10° SSW
Meteor 1-24 Rocket 3.9 20:27:40 10° NNW 20:33:39 82° W 20:39:24 10° S
Cosmos 1697 Rocket 4.3 20:33:58 10° N 20:37:38 17° NE 20:38:31 17° ENE
Cosmos 1980 Rocket 4.2 20:37:34 10° NNE 20:39:09 11° NE 20:39:51 11° NE
ALOS 4.0 20:35:52 10° SSW 20:40:06 34° W 20:44:22 10° NNW
SJ-6B 3.3 20:39:15 10° S 20:43:13 61° W 20:47:07 10° NNW
SJ 16-02 1.3 20:40:15 10° N 20:44:36 59° ENE 20:46:14 35° SE
H-2A R/B 3.8 20:44:24 10° S 20:47:57 44° W 20:51:35 10° NNW
Cosmos 1953 2.5 20:47:22 41° SE 20:48:08 47° E 20:52:03 10° NNE
Cosmos 783 Rocket 4.4 20:44:42 10° S 20:49:50 64° ESE 20:55:00 10° NNE
Resurs 1-3 3.5 20:49:23 32° SE 20:51:15 64° ENE 20:55:36 10° N
Cosmos 1356 3.4 20:53:04 10° NNW 20:56:35 80° W 20:57:26 49° S
Cosmos 372 Rocket 4.1 20:51:58 10° NNW 20:57:14 79° WSW 21:01:00 19° SSE
Cosmos 1125 Rocket 3.8 20:52:28 10° NNW 20:57:45 69° WSW 21:02:15 14° S
Cosmos 2154 Rocket 3.9 20:52:35 10° S 20:58:47 85° E 21:05:06 10° N
Envisat 2.9 21:01:14 35° SSE 21:03:24 73° ENE 21:08:29 10° N
Cosmos 2341 Rocket 3.8 21:06:23 10° S 21:12:33 77° E 21:18:47 10° N
FALCON 9 R/B 2.7 21:11:49 10° WSW 21:15:11 41° S 21:15:44 40° SSE
Cosmos 1674 3.0 21:13:41 10° N 21:16:47 58° NNW 21:16:47 58° NNW
Resurs 01 Rocket 2.0 21:15:42 31° S 21:17:39 61° W 21:22:02 10° NNW
GP-B 3.7 21:15:34 10° N 21:19:55 56° W 21:23:39 14° SSW
ATLAS 2AS CENTAUR R/B 3.2 21:14:14 10° NNW 21:22:03 51° NE 21:23:48 44° E
Meteor 2-21 4.3 21:22:45 47° SSE 21:24:27 66° E 21:30:32 10° NNE
SL-27 R/B 4.0 21:21:39 10° SW 21:25:00 36° WNW 21:28:25 10° N
H-2A R/B 4.2 21:28:13 12° NNE 21:28:13 12° NNE 21:28:52 10° NNE
Cosmos 2369 3.6 21:22:46 10° NNW 21:28:26 69° ENE 21:28:37 69° ENE
Nadezhda 3 Rocket 4.5 21:23:10 10° NNW 21:29:21 60° W 21:35:03 12° S
MOS 1-B Rocket 4.3 21:30:40 22° S 21:34:41 60° WSW 21:40:18 10° NNW
Cosmos 2218 Rocket 4.1 21:38:40 57° NE 21:38:40 57° NE 21:43:52 10° NNE
Meteor 2-15 Rocket 4.4 21:33:24 10° N 21:39:04 66° NE 21:39:04 66° NE
Cosmos 2285 Rocket 3.9 21:34:02 10° SSW 21:40:27 90° WNW 21:46:57 10° NNE
Okean 3 Rocket 4.4 21:41:39 10° NNW 21:45:29 49° WNW 21:45:29 49° WNW
SL-8 Rocket 4.1 21:59:29 66° SW 22:00:09 72° W 22:06:20 10° N
Cosmos 2278 4.1 21:56:57 10° NNW 22:02:00 61° WNW 22:02:00 61° WNW
Cosmos 1727 Rocket 4.5 21:58:14 10° N 22:02:58 52° NNE 22:02:58 52° NNE
BREEZE-M DEB (TANK) 3.8 21:57:53 10° W 22:04:19 47° WNW 22:04:19 47° WNW
Cosmos 2322 Rocket 4.4 22:09:58 10° N 22:11:28 15° NNE 22:11:28 15° NNE
Cosmos 1697 Rocket 3.7 22:16:36 10° NNW 22:20:16 42° NNW 22:20:16 42° NNW
SJ 16-02 4.2 22:21:04 10° WNW 22:22:36 12° W 22:23:17 11° WSW
Cosmos 1980 Rocket 3.6 22:18:41 10° NNW 22:21:38 31° N 22:21:38 31° N
BREEZE-M DEB (TANK) 4.5 22:30:16 10° WNW 22:40:49 45° NNW 22:40:49 45° NNW
SL-16 R/B 4.4 22:47:28 10° N 22:48:58 18° N 22:48:58 18° N
ATLAS 2AS CENTAUR R/B 4.1 23:05:43 10° NW 23:11:15 35° W 23:11:15 35° W
